Home > Weather > Carrollton > Past weeks

Flag for USA Past Weather in Carrollton, Texas, USA — Yesterday and Last 2 Weeks

Now
81 °F

Partly sunny.


Feels Like: 84 °F
Forecast: 79 / 96 °F
Wind: 3 mph from South

Location: Dallas Love Field

Current Time: Jul 1, 2016 at 8:33:30 AM

Latest Report: Jul 1, 2016 at 7:53 AM


Visibility: 10 mi

Pressure: 29.99 "Hg

Humidity: 65%

Dew Point: 68 °F

Location of CarrolltonLocation

Past Weather in Carrollton — Graph

°F

Carrollton Temperature Yesterday

Maximum temperature yesterday: 95 °F (at 3:53 PM)
Minimum temperature yesterday: 78 °F (at 5:53 AM)
Average temperature yesterday: 87 °F

High & Low Weather Summary for the Past Weeks

 TemperatureHumidityPressure
High99 °F (Jun 27, 3:53 PM)87% (Jun 28, 12:53 AM)30.19 "Hg (Jun 28, 12:53 AM)
Low75 °F (Jun 29, 5:53 AM)31% (Jun 20, 5:53 PM)29.82 "Hg (Jun 17, 6:53 PM)
Average87 °F59%30.00 "Hg
* Reported Jun 16 6:53 AM — Jul 1 6:53 AM, Carrollton, Weather by CustomWeather, © 2016

Note: Actual official high and low records may vary slightly from our data, if they occured in-between our weather recording intervals... More about our weather records

Advertising

Carrollton Weather History for the Previous 24 Hours

Scroll right to see more
 ConditionsComfort  
Time TempWeatherWind HumidityBarometerVisibility
6:53 AM
Fri, Jul 1
79 °FPassing clouds.5 mph67%29.98 "Hg10 mi
5:53 AM80 °FPassing clouds.5 mph62%29.97 "Hg10 mi
4:53 AM80 °FPassing clouds.5 mph62%29.96 "Hg10 mi
3:53 AM81 °FClear.7 mph60%29.95 "Hg10 mi
2:53 AM83 °FPassing clouds.5 mph57%29.95 "Hg10 mi
1:53 AM83 °FPassing clouds.7 mph57%29.94 "Hg10 mi
12:53 AM83 °FPassing clouds.8 mph59%29.94 "Hg10 mi
11:53 PM
Thu, Jun 30
84 °FPassing clouds.8 mph55%29.95 "Hg10 mi
10:53 PM87 °FPassing clouds.9 mph48%29.94 "Hg10 mi
9:53 PM88 °FPassing clouds.10 mph45%29.93 "Hg10 mi
8:53 PM89 °FPassing clouds.10 mph41%29.91 "Hg10 mi
7:53 PM92 °FPassing clouds.12 mph38%29.90 "Hg10 mi
6:53 PM93 °FScattered clouds.9 mph38%29.89 "Hg10 mi
5:53 PM95 °FScattered clouds.10 mph37%29.90 "Hg10 mi
4:53 PM94 °FPartly sunny.8 mph40%29.91 "Hg10 mi
3:53 PM95 °FPartly sunny.7 mph41%29.93 "Hg10 mi
2:53 PM94 °FBroken clouds.No wind41%29.94 "Hg10 mi
1:53 PM93 °FBroken clouds.3 mph44%29.96 "Hg10 mi
12:53 PM90 °FPartly sunny.6 mph48%29.98 "Hg10 mi
11:53 AM90 °FPartly sunny.6 mph48%29.99 "Hg10 mi
10:53 AM89 °FPartly sunny.7 mph50%30.00 "Hg10 mi
9:53 AM87 °FPassing clouds.8 mph53%30.01 "Hg10 mi
8:53 AM85 °FPassing clouds.5 mph59%30.00 "Hg10 mi
Weather by CustomWeather, © 2016

See weather overviewHow to use our weather pages